TimePST,TemperatureF,Dew PointF,Humidity,Sea Level PressureIn,VisibilityMPH,Wind Direction,Wind SpeedMPH,Gust SpeedMPH,PrecipitationIn,Events,Conditions,WindDirDegrees,DateUTC
12:53 AM,41.0,37.9,89,29.95,8.0,SSE,8.1,-,0.03,Rain,Light Rain,150,2013-01-07 08:53:00
1:53 AM,41.0,37.9,89,29.94,8.0,SSE,9.2,-,0.05,Rain,Light Rain,150,2013-01-07 09:53:00
2:23 AM,41.0,39.2,93,29.92,7.0,SSE,10.4,16.1,0.03,Rain,Light Rain,150,2013-01-07 10:23:00
2:53 AM,41.0,39.0,93,29.92,7.0,Variable,5.8,-,0.06,Rain,Light Rain,0,2013-01-07 10:53:00
3:09 AM,41.0,39.2,93,29.89,7.0,SE,6.9,-,0.00,Rain,Light Rain,130,2013-01-07 11:09:00
3:44 AM,41.0,39.2,93,29.88,5.0,Variable,4.6,-,0.00,,Overcast,0,2013-01-07 11:44:00
3:53 AM,42.1,39.0,89,29.88,5.0,Variable,3.5,-,0.00,,Overcast,0,2013-01-07 11:53:00
4:53 AM,42.1,39.9,92,29.84,6.0,SSE,11.5,17.3,N/A,,Overcast,150,2013-01-07 12:53:00
5:53 AM,43.0,41.0,93,29.83,4.0,South,13.8,19.6,0.00,Rain,Light Rain,170,2013-01-07 13:53:00
6:13 AM,44.6,41.0,87,29.81,2.5,SSE,19.6,25.3,0.03,Rain,Light Rain,160,2013-01-07 14:13:00
6:53 AM,45.0,42.1,90,29.82,10.0,SSE,19.6,23.0,0.04,Rain,Light Rain,160,2013-01-07 14:53:00
7:53 AM,45.0,43.0,93,29.82,4.0,SSE,17.3,28.8,0.00,,Overcast,160,2013-01-07 15:53:00
8:53 AM,46.0,44.1,93,29.85,8.0,South,11.5,-,N/A,,Overcast,180,2013-01-07 16:53:00
9:53 AM,46.9,44.1,90,29.86,9.0,South,12.7,-,N/A,,Overcast,190,2013-01-07 17:53:00
10:53 AM,48.2,44.6,87,29.87,5.0,South,17.3,-,N/A,Rain,Light Rain,190,2013-01-07 18:53:00
11:53 AM,48.9,46.0,90,29.88,10.0,SSW,18.4,-,0.01,,Overcast,200,2013-01-07 19:53:00
12:53 PM,50.0,46.0,86,29.90,10.0,SSW,17.3,24.2,N/A,,Overcast,200,2013-01-07 20:53:00
1:00 PM,50.0,46.4,87,29.89,10.0,SSW,17.3,24.2,N/A,,Overcast,200,2013-01-07 21:00:00
1:34 PM,50.0,46.4,87,29.93,10.0,SSW,11.5,-,N/A,,Overcast,210,2013-01-07 21:34:00
1:53 PM,50.0,45.0,83,29.95,10.0,SW,4.6,-,N/A,,Overcast,220,2013-01-07 21:53:00
2:02 PM,50.0,44.6,82,29.94,10.0,SW,6.9,-,N/A,,Overcast,230,2013-01-07 22:02:00
2:53 PM,48.2,46.4,93,29.95,10.0,Calm,Calm,-,N/A,Rain,Light Rain,0,2013-01-07 22:53:00
2:56 PM,48.2,46.4,93,29.96,1.2,Calm,Calm,-,0.01,Rain,Light Rain,0,2013-01-07 22:56:00
3:07 PM,48.2,46.4,93,29.97,2.0,Calm,Calm,-,0.01,Rain,Light Rain,0,2013-01-07 23:07:00
3:14 PM,48.2,46.4,93,29.97,10.0,Calm,Calm,-,0.02,Rain,Light Rain,0,2013-01-07 23:14:00
3:53 PM,50.0,45.0,83,30.01,10.0,Variable,4.6,-,0.02,,Overcast,0,2013-01-07 23:53:00
4:06 PM,48.2,44.6,87,30.00,10.0,Calm,Calm,-,0.00,Rain,Light Rain,0,2013-01-08 00:06:00
4:53 PM,48.0,44.1,86,30.03,10.0,Calm,Calm,-,0.01,,Overcast,0,2013-01-08 00:53:00
5:00 PM,48.2,44.6,87,30.02,10.0,Variable,3.5,-,N/A,,Overcast,0,2013-01-08 01:00:00
5:53 PM,48.0,43.0,83,30.05,10.0,South,3.5,-,N/A,,Overcast,170,2013-01-08 01:53:00
6:00 PM,46.4,42.8,87,30.04,10.0,South,4.6,-,N/A,,Mostly Cloudy,180,2013-01-08 02:00:00
6:30 PM,48.2,42.8,82,30.05,10.0,Calm,Calm,-,N/A,,Overcast,0,2013-01-08 02:30:00
6:37 PM,48.2,42.8,82,30.06,10.0,Calm,Calm,-,N/A,,Overcast,0,2013-01-08 02:37:00
6:53 PM,46.9,43.0,86,30.08,10.0,SSE,4.6,-,N/A,,Overcast,160,2013-01-08 02:53:00
7:24 PM,46.4,42.8,87,30.07,10.0,Calm,Calm,-,N/A,,Overcast,0,2013-01-08 03:24:00
7:49 PM,46.4,42.8,87,30.07,10.0,SSE,8.1,-,N/A,,Overcast,160,2013-01-08 03:49:00
7:53 PM,46.9,42.1,83,30.08,10.0,SSE,6.9,-,N/A,,Overcast,150,2013-01-08 03:53:00
8:33 PM,46.4,42.8,87,30.09,10.0,SSE,3.5,-,N/A,,Overcast,150,2013-01-08 04:33:00
8:53 PM,46.9,42.1,83,30.11,10.0,NE,3.5,-,N/A,,Overcast,40,2013-01-08 04:53:00
9:53 PM,46.0,41.0,83,30.13,10.0,ESE,5.8,-,N/A,,Overcast,110,2013-01-08 05:53:00
10:53 PM,46.0,39.9,79,30.15,10.0,ESE,3.5,-,N/A,,Overcast,120,2013-01-08 06:53:00
11:53 PM,46.0,39.9,79,30.15,10.0,SSE,6.9,-,N/A,,Overcast,150,2013-01-08 07:53:00